Stampede Pass, WA

6:06 AM PST on November 20, 2017 (GMT -0800)
Stampede Pass

Weather History for KSMP - June, 2014

Change the Weather History Date:

Thursday, June 19, 2014

  Actual Average Record
Temperature  
Mean Temperature 47 °F -  
Max Temperature 64 °F 56 °F 73 °F (2017)
Min Temperature 41 °F 40 °F 35 °F (2016)
Degree Days  
Heating Degree Days 18    
Moisture  
Dew Point 41 °F    
Average Humidity 88    
Maximum Humidity 93    
Minimum Humidity 71    
Precipitation  
Precipitation 0.00 in - - ()
Sea Level Pressure  
Sea Level Pressure 30.03 in    
Wind  
Wind Speed 4 mph (WSW)    
Max Wind Speed 7 mph    
Max Gust Speed -    
Visibility 4 miles    
Events Fog , Rain    
Averages and records for this station are not official NWS values.
T = Trace of Precipitation, MM = Missing Value Source: NWS Daily Summary

Daily Weather History Graph

Daily Weather History Graph

Search for Another Location

Airport or City:

Trip Planner

Search our weather history database for the weather conditions in past years. The results will help you decide how hot, cold, wet, or windy it might be!

Date:

Astronomy

Jun. 19, 2014 Rise Set
Actual Time 5:08 AM PDT 9:04 PM PDT
Civil Twilight 4:28 AM PDT 9:45 PM PDT
Nautical Twilight 3:32 AM PDT 10:40 PM PDT
Astronomical Twilight 2:07 AM PDT 12:06 AM PDT
Moon 12:44 AM PDT (6/19) 1:14 PM PDT (6/19)
Length of Visible Light 17h 16m
Length of Day
15h 56m
Waning Gibbous, 50% of the Moon is Illuminated
Jun 19
Waning Gibbous
Jun 27
New
Jul 5
First Quarter
Jul 12
Full
Jul 18
Last Quarter

Hourly Weather History & Observations

Time (PDT) Temp. Windchill Dew Point Humidity Pressure Visibility Wind Dir Wind Speed Gust Speed Precip Events Conditions
12:03 AM 42.8 °F 39.3 °F 39.2 °F 87% 30.05 in 2.0 mi Variable 5.8 mph - N/A   Mostly Cloudy
12:10 AM 42.8 °F 40.1 °F 39.2 °F 87% 30.05 in 4.0 mi Variable 4.6 mph - N/A   Mostly Cloudy
12:56 AM 42.1 °F 40.2 °F 39.9 °F 92% 30.04 in 5.0 mi Variable 3.5 mph - N/A   Partly Cloudy
1:43 AM 42.8 °F 41.1 °F 39.2 °F 87% 30.03 in 1.5 mi Variable 3.5 mph - N/A   Scattered Clouds
1:46 AM 42.8 °F 40.1 °F 39.2 °F 87% 30.03 in 0.8 mi Variable 4.6 mph - N/A   Mist
2:09 AM 42.8 °F 40.1 °F 39.2 °F 87% 30.02 in 0.2 mi Variable 4.6 mph - N/A Fog Fog
2:20 AM 42.8 °F 41.1 °F 39.2 °F 87% 30.02 in 0.5 mi Variable 3.5 mph - N/A Fog Fog
2:40 AM 42.8 °F 41.1 °F 39.2 °F 87% 30.02 in 1.5 mi Variable 3.5 mph - N/A   Overcast
2:56 AM 42.1 °F 37.7 °F 39.9 °F 92% 30.02 in 3.0 mi SW 6.9 mph - N/A   Mostly Cloudy
3:01 AM 42.8 °F 39.3 °F 39.2 °F 87% 30.02 in 2.5 mi Variable 5.8 mph - N/A   Mostly Cloudy
3:34 AM 42.8 °F 40.1 °F 39.2 °F 87% 30.02 in 1.2 mi Variable 4.6 mph - N/A   Mostly Cloudy
3:46 AM 42.8 °F 39.3 °F 39.2 °F 87% 30.02 in 2.0 mi WSW 5.8 mph - N/A   Mostly Cloudy
3:56 AM 42.1 °F 40.2 °F 39.9 °F 92% 30.02 in 2.5 mi Variable 3.5 mph - N/A   Mostly Cloudy
4:27 AM 42.8 °F 41.1 °F 39.2 °F 87% 30.02 in 4.0 mi Variable 3.5 mph - N/A   Mostly Cloudy
4:45 AM 42.8 °F - 39.2 °F 87% 30.02 in 4.0 mi Calm Calm - N/A   Partly Cloudy
4:52 AM 41.0 °F 39.0 °F 39.2 °F 93% 30.02 in 1.8 mi WSW 3.5 mph - N/A   Scattered Clouds
4:56 AM 41.0 °F 39.0 °F 39.0 °F 93% 30.02 in 1.8 mi Variable 3.5 mph - N/A   Scattered Clouds
5:01 AM 42.8 °F - 39.2 °F 87% 30.02 in 3.0 mi Calm Calm - N/A   Scattered Clouds
5:53 AM 42.8 °F 40.1 °F 39.2 °F 87% 30.02 in 2.5 mi Variable 4.6 mph - N/A   Mostly Cloudy
5:56 AM 42.1 °F 40.2 °F 39.9 °F 92% 30.02 in 2.5 mi Variable 3.5 mph - N/A   Scattered Clouds
6:56 AM 44.1 °F 42.5 °F 41.0 °F 89% 30.03 in 4.0 mi Variable 3.5 mph - N/A   Mostly Cloudy
7:56 AM 46.0 °F 44.8 °F 43.0 °F 89% 30.03 in 10.0 mi Variable 3.5 mph - N/A   Overcast
8:21 AM 46.4 °F 45.2 °F 42.8 °F 87% 30.04 in 10.0 mi Variable 3.5 mph - N/A   Overcast
8:56 AM 48.0 °F - 42.1 °F 80% 30.04 in 10.0 mi Variable 5.8 mph - N/A   Overcast
9:17 AM 50.0 °F - 41.0 °F 71% 30.04 in 10.0 mi Variable 6.9 mph - N/A   Scattered Clouds
8:56 PM 53.1 °F - 45.0 °F 74% 30.02 in 10.0 mi Variable 3.5 mph - N/A   Overcast
9:56 PM 50.0 °F - 48.0 °F 93% 30.03 in 6.0 mi Variable 3.5 mph - N/A   Overcast
11:04 PM 48.2 °F - 46.4 °F 93% 30.06 in 1.5 mi Variable 5.8 mph - 0.03 in Rain Light Rain
11:09 PM 48.2 °F - 46.4 °F 93% 30.06 in 0.8 mi Variable 4.6 mph - 0.03 in Rain Light Rain
11:31 PM 48.2 °F - 46.4 °F 93% 30.06 in 0.2 mi Variable 6.9 mph - 0.04 in Fog , Rain Light Rain